Regional Weather Roundup
Issued by NWS

Home | Current Version | Previous Version | Text Only | Print | Product List | Glossary Off
Versions: 1 2 3 4 5 6 7 8 9 10 11 12 13 14 15 16 17 18 19 20 21 22 23 24 25 26 27 28 29 30 31 32 33 34 35 36 37 38 39 40 41 42 43 44 45 46 47 48 49 50

143
ASUS43 KMKX 081000
RWRWI

WISCONSIN REGIONAL WEATHER ROUNDUP
NATIONAL WEATHER SERVICE MILWAUKEE/SULLIVAN WI
400 AM CST THU DEC 08 2016

NOTE: "FAIR" INDICATES FEW OR NO CLOUDS BELOW 12,000 FEET WITH NO
SIGNIFICANT WEATHER AND/OR OBSTRUCTIONS TO VISIBILITY.

WIZ001-002-006>008-014>016-023>028-081100-
NORTHWEST WISCONSIN

CITY           SKY/WX    TMP DP  RH WIND       PRES   REMARKS
SUPERIOR ARPT  CLOUDY    25  19  79 NW13G20   30.06R WCI  13
ASHLAND        LGT SNOW  21  18  88 SW8       30.01R FOG     WCI  11
HAYWARD        FLURRIES  18  14  84 VRB3      30.03R
SIREN          LGT SNOW  19  15  87 W8        30.09R WCI   8
CUMBERLAND     LGT SNOW  18  12  79 W10       30.06R WCI   6
RICE LAKE      LGT SNOW  17  13  86 W10       30.09R WCI   4
CHETEK         FLURRIES  16  12  84 W10       30.07S WCI   3
LADYSMITH      LGT SNOW  17  14  86 W12       30.04R WCI   4
EAU CLAIRE     NOT AVBL
MENOMONIE      PTCLDY    17  12  81 W13       30.12R WCI   3
NEW RICHMOND   LGT SNOW  16  12  84 W15       30.12F WCI   2
OSCEOLA        LGT SNOW  18  14  85 W13G18    30.16S WCI   4
$$

WIZ003>005-009-010-017-018-081100-
NORTH CENTRAL WISCONSIN

CITY           SKY/WX    TMP DP  RH WIND       PRES   REMARKS
MANITOWISH WTR FLURRIES  17  15  93 W10G16    29.90R WCI   4
ARBOR VITAE    CLOUDY    17  13  86 W6        29.91S WCI   9
WOODRUFF       CLOUDY    17  13  86 W6        29.91S WCI   9
RHINELANDER    CLOUDY    15  11  83 W14       29.93R WCI   0
EAGLE RIVER    FLURRIES  15  11  82 W12       29.89R WCI   2
LAND O LAKES   FLURRIES  17  14  86 W6        29.89R WCI   9
PHILLIPS       FLURRIES  15  13  90 W5        29.97R WCI   7
TOMAHAWK       LGT SNOW  14  10  84 W10       29.96S WCI   2
MEDFORD        LGT SNOW  13   9  84 W12G18    30.00R WCI  -1
MERRILL        FLURRIES  15  10  82 W12       29.99S WCI   2
$$

WIZ029-030-035-036-043>047-081100-
CENTRAL WISCONSIN

CITY           SKY/WX    TMP DP  RH WIND       PRES   REMARKS
WAUSAU         FLURRIES  15  10  80 W13       30.00S WCI   1
MOSINEE        FLURRIES  14  12  92 W16       30.02S WCI  -2
MARSHFIELD     LGT SNOW  14   9  80 W15G23    30.03S WCI  -1
STEVENS POINT  FLURRIES  14   8  77 W14G21    30.04S WCI  -1
WAUPACA        LGT SNOW  20  13  73 W10G20    30.06R WCI   9
WAUTOMA        FLURRIES  17  12  80 W16       30.08S WCI   2
WISC RAPIDS    FLURRIES  16  10  77 W13G20    30.07S WCI   2
CAMP DOUGLAS   FLURRIES  14   9  79 W14       30.11R WCI  -1
$$

WIZ011>013-019>022-031-037>040-048>050-081100-
NORTHEAST WISCONSIN

CITY           SKY/WX    TMP DP  RH WIND       PRES   REMARKS
ANTIGO         LGT SNOW  13  10  85 W14G20    29.95S WCI  -2
SHAWANO        CLOUDY    20  11  67 W16       30.02R WCI   6
OCONTO         CLOUDY    19  10  65 W17G26    29.99S WCI   4
STURGEON BAY   FLURRIES  20  12  71 W20       29.97S WCI   4
GREEN BAY      FLURRIES  22  12  65 W23       30.02S WCI   6
MANITOWOC      NOT AVBL
APPLETON       FLURRIES  19  10  68 W17G25    30.02S WCI   4
CLINTONVILLE   FLURRIES  19  10  68 W10G17    30.03R WCI   8
OSHKOSH        CLOUDY    19  12  74 W12G20    30.05R WCI   7
$$

WIZ032>034-041-042-053>061-081100-
SOUTHWEST WISCONSIN

CITY           SKY/WX    TMP DP  RH WIND       PRES   REMARKS
LA CROSSE      CLOUDY    18  10  71 W13       30.18S WCI   5
SPARTA         FLURRIES  16  11  82 W8        30.14S WCI   5
VIROQUA        CLOUDY    13   9  82 W14       30.13S WCI  -2
BOSCOBEL       CLOUDY    16   7  67 W7        30.22R WCI   6
PRAIRIE DU CHI CLOUDY    15   6  67 W8G18     30.24S WCI   4
PLATTEVILLE    MOCLDY    14   9  79 W20G30    30.19S WCI  -3
$$

WIZ056-057-062-063-064-067-068-081100-
SOUTH CENTRAL WISCONSIN

CITY           SKY/WX    TMP DP  RH WIND       PRES   REMARKS
REEDSBURG      FLURRIES  16   9  75 W14G22    30.12S WCI   1
BARABOO/DELLS  CLOUDY    17   9  71 W13G25    30.11R WCI   3
LONE ROCK      NOT AVBL
MINERAL POINT  FLURRIES  16  10  79 W18G25    30.15R WCI  -1
MADISON        CLOUDY    17   8  67 W12G20    30.12R WCI   4
MIDDLETON      CLOUDY    18  11  73 W17G24    30.13R WCI   3
WATERTOWN      CLOUDY    19  12  73 W14G22    30.09S WCI   6
MONROE         MOCLDY    14   9  79 W26G35    30.14S WCI  -6
JANESVILLE     FLURRIES  21  12  68 W15G22    30.14R WCI   8
$$

WIZ051-052-058>065-066-070>072-081100-
SOUTHEAST WISCONSIN

CITY           SKY/WX    TMP DP  RH WIND       PRES   REMARKS
MILWAUKEE      FLURRIES  23  12  62 W10       30.09S WCI  12
WAUKESHA       CLOUDY    19  10  68 W17G25    30.09S WCI   4
MILWAUKEE/TIMM CLOUDY    21  10  63 W13G24    30.09S WCI   9
RACINE         CLOUDY    22  12  65 W12       30.11F WCI  10
BURLINGTON     MOCLDY    19  12  73 W13G22    30.11S WCI   7
KENOSHA        CLOUDY    20  11  68 W18G26    30.11S WCI   5
FOND DU LAC    FLURRIES  20  11  68 W15       30.06S WCI   6
SHEBOYGAN      FLURRIES  21  12  68 W20G28    30.04S WCI   6
WEST BEND      CLOUDY    21  12  68 W14G25    30.06R WCI   8
JUNEAU         CLOUDY    18  10  71 W13G22    30.09S WCI   5
$$

LSZ147-162-081100-
LAKE SUPERIOR

STATION/POSITION TIME  TEMP    WIND        PRES    WAVE
                       AIR SEA DIR/SP/G            HT/PER
                 (UTC) (F)     (DEG/KT/KT) (MB)    (FT/S)
DEVILS ISLAND    0900   28     330/ 24/ 30 1015.9R
PORT WING        0930   28     330/ 18/ 27 1016.9R
SAXON HARBOR     0940   23     240/  9/ 15 1014.9R
$$

LMZ867-665-643>646-081100-
LAKE MICHIGAN

STATION/POSITION TIME  TEMP    WIND        PRES    WAVE
                       AIR SEA DIR/SP/G            HT/PER
                 (UTC) (F)     (DEG/KT/KT) (MB)    (FT/S)
CHAMBERS ISLAND  0930   22     230/ 11/ 23 1013.5S
NORTHPORT PIER   0940   23     260/  9/ 20 1013.2S
SISTER BAY       0836   24     320/ 23/ 32   N/A
ALGOMA LAKESHORE 0921          270/ 17/ 24   N/A
KEWAUNEE LAKESHO 0930   22     310/ 13/ 23 1015.3S
SHEBOYGAN LAKESH 0900   22     260/ 18/ 22 1018.0F
PORT WASHINGTON  0940   22     270/  8/ 14 1019.3S
MILWAUKEE LAKESH 0930   22     260/ 18/ 21   N/A
KENOSHA   LAKESH 0900   23     280/ 14/ 23 1019.6
$$

TC  - TEMPERATURE IN CELSIUS
VSB - VISIBILITY IN STATUTE MILES
WCI - WIND CHILL INDEX
HX  - HEAT INDEX





USA.gov is the U.S. government's official web portal to all federal, state and local government web resources and services.